• In Belgien
  • Länderverzeichnis
  • Für 7 Tage
  • Wassertemperatur
  • Satellitenkarten
  • Wetterkarte
  • Widgets
  • user-avatar
    Anmelden

    Stündliche Wetter Podele

    Heute, 24 September, Montag

    Zeit Temperatur Niederschläge Wind Luftdruck Luftfeuchtigkeit
    00:00 +7°C° 0 mm 3 m/S 738 mmHg 90%
    01:00 +7°C° 0 mm 3 m/S 738 mmHg 91%
    02:00 +6°C° 0 mm 2 m/S 738 mmHg 95%
    03:00 +6°C° 0 mm 2 m/S 738 mmHg 96%
    04:00 +5°C° 0 mm 2 m/S 738 mmHg 96%
    05:00 +5°C° 0 mm 2 m/S 738 mmHg 97%
    06:00 +5°C° 0 mm 3 m/S 738 mmHg 93%
    07:00 +7°C° 0 mm 3 m/S 738 mmHg 88%
    08:00 +8°C° 0 mm 3 m/S 739 mmHg 82%
    09:00 +10°C° 0 mm 3 m/S 738 mmHg 76%
    10:00 +11°C° 0 mm 3 m/S 738 mmHg 69%
    11:00 +13°C° 0 mm 4 m/S 738 mmHg 63%
    12:00 +12°C° 0.3 mm 4 m/S 738 mmHg 68%
    13:00 +11°C° 0.3 mm 4 m/S 737 mmHg 74%
    14:00 +11°C° 0 mm 3 m/S 737 mmHg 80%
    15:00 +10°C° 0.9 mm 3 m/S 737 mmHg 84%
    16:00 +9°C° 0.9 mm 3 m/S 736 mmHg 88%
    17:00 +8°C° 0.9 mm 3 m/S 735 mmHg 91%
    18:00 +7°C° 1.5 mm 4 m/S 735 mmHg 91%
    19:00 +7°C° 1.5 mm 4 m/S 734 mmHg 92%
    20:00 +6°C° 1.5 mm 5 m/S 733 mmHg 92%
    21:00 +6°C° 1.9 mm 5 m/S 732 mmHg 92%
    22:00 +6°C° 1.9 mm 5 m/S 730 mmHg 93%
    23:00 +6°C° 1.9 mm 5 m/S 729 mmHg 93%

    Morgen, 25 September, Dienstag

    Zeit Temperatur Niederschläge Wind Luftdruck Luftfeuchtigkeit
    00:00 +7°C° 1.8 mm 4 m/S 729 mmHg 93%
    01:00 +7°C° 1.8 mm 4 m/S 728 mmHg 94%
    02:00 +7°C° 1.8 mm 4 m/S 728 mmHg 94%
    03:00 +7°C° 1 mm 4 m/S 728 mmHg 94%
    04:00 +8°C° 1 mm 3 m/S 728 mmHg 94%
    05:00 +8°C° 1 mm 3 m/S 727 mmHg 94%
    06:00 +7°C° 0.6 mm 4 m/S 728 mmHg 93%
    07:00 +7°C° 0.6 mm 4 m/S 728 mmHg 92%
    08:00 +7°C° 0.6 mm 5 m/S 729 mmHg 91%
    09:00 +5°C° 0.6 mm 6 m/S 730 mmHg 90%
    10:00 +5°C° 0.6 mm 6 m/S 730 mmHg 89%
    11:00 +5°C° 0.6 mm 7 m/S 731 mmHg 88%
    12:00 +5°C° 0.4 mm 7 m/S 732 mmHg 87%
    13:00 +5°C° 0.4 mm 7 m/S 733 mmHg 86%
    14:00 +5°C° 0.4 mm 7 m/S 734 mmHg 86%
    15:00 +5°C° 0.3 mm 7 m/S 735 mmHg 85%
    16:00 +5°C° 0.3 mm 7 m/S 736 mmHg 84%
    17:00 +5°C° 0.3 mm 7 m/S 737 mmHg 83%
    18:00 +5°C° 0.1 mm 6 m/S 737 mmHg 83%
    19:00 +4°C° 0.1 mm 6 m/S 738 mmHg 82%
    20:00 +4°C° 0.1 mm 6 m/S 739 mmHg 81%
    21:00 +4°C° 0 mm 6 m/S 740 mmHg 82%
    22:00 +3°C° 0 mm 6 m/S 741 mmHg 82%
    23:00 +2°C° 0 mm 5 m/S 742 mmHg 83%

    übermorgen, 26 September, Mittwoch

    Zeit Temperatur Niederschläge Wind Luftdruck Luftfeuchtigkeit
    00:00 +2°C° 0 mm 5 m/S 742 mmHg 82%
    01:00 +1°C° 0 mm 5 m/S 743 mmHg 81%
    02:00 +1°C° 0 mm 5 m/S 744 mmHg 80%
    03:00 +1°C° 0 mm 5 m/S 745 mmHg 80%
    04:00 0°C° 0 mm 4 m/S 746 mmHg 80%
    05:00 0°C° 0 mm 4 m/S 746 mmHg 79%
    06:00 0°C° 0 mm 4 m/S 747 mmHg 76%
    07:00 +1°C° 0 mm 4 m/S 747 mmHg 72%
    08:00 +3°C° 0 mm 4 m/S 748 mmHg 68%
    09:00 +4°C° 0 mm 4 m/S 748 mmHg 64%
    10:00 +6°C° 0 mm 4 m/S 748 mmHg 61%
    11:00 +8°C° 0 mm 4 m/S 748 mmHg 57%
    12:00 +8°C° 0 mm 4 m/S 748 mmHg 58%
    13:00 +10°C° 0 mm 4 m/S 748 mmHg 58%
    14:00 +11°C° 0 mm 4 m/S 747 mmHg 59%
    15:00 +10°C° 0 mm 4 m/S 747 mmHg 63%
    16:00 +8°C° 0 mm 4 m/S 746 mmHg 67%
    17:00 +7°C° 0 mm 4 m/S 746 mmHg 71%
    18:00 +7°C° 0 mm 4 m/S 745 mmHg 69%
    19:00 +7°C° 0 mm 5 m/S 744 mmHg 68%
    20:00 +7°C° 0 mm 5 m/S 743 mmHg 66%
    21:00 +5°C° 0.4 mm 6 m/S 742 mmHg 70%
    22:00 +5°C° 0.4 mm 7 m/S 741 mmHg 74%
    23:00 +4°C° 0.4 mm 7 m/S 739 mmHg 78%

    27 September, Donnerstag

    Zeit Temperatur Niederschläge Wind Luftdruck Luftfeuchtigkeit
    00:00 +4°C° 1.6 mm 8 m/S 738 mmHg 82%
    01:00 +4°C° 1.6 mm 8 m/S 737 mmHg 85%
    02:00 +4°C° 1.6 mm 8 m/S 736 mmHg 88%
    03:00 +4°C° 1.3 mm 7 m/S 735 mmHg 89%
    04:00 +5°C° 1.3 mm 7 m/S 734 mmHg 90%
    05:00 +5°C° 1.3 mm 7 m/S 733 mmHg 91%
    06:00 +5°C° 0.4 mm 6 m/S 733 mmHg 87%
    07:00 +7°C° 0.4 mm 6 m/S 733 mmHg 84%
    08:00 +7°C° 0.4 mm 6 m/S 733 mmHg 80%
    09:00 +8°C° 0.1 mm 6 m/S 733 mmHg 76%
    10:00 +8°C° 0.1 mm 7 m/S 733 mmHg 71%
    11:00 +9°C° 0.1 mm 7 m/S 733 mmHg 66%
    12:00 +9°C° 0.2 mm 7 m/S 734 mmHg 64%
    13:00 +9°C° 0.2 mm 7 m/S 734 mmHg 62%
    14:00 +9°C° 0.2 mm 8 m/S 734 mmHg 60%
    15:00 +8°C° 0.1 mm 7 m/S 735 mmHg 63%
    16:00 +7°C° 0.1 mm 5 m/S 735 mmHg 67%
    17:00 +6°C° 0.1 mm 4 m/S 736 mmHg 70%
    18:00 +6°C° 0 mm 4 m/S 736 mmHg 72%
    19:00 +5°C° 0 mm 5 m/S 736 mmHg 73%
    20:00 +5°C° 0 mm 5 m/S 736 mmHg 74%
    21:00 +5°C° 0 mm 5 m/S 737 mmHg 75%
    22:00 +3°C° 0 mm 5 m/S 737 mmHg 75%
    23:00 +3°C° 0 mm 5 m/S 737 mmHg 76%

    28 September, Freitag

    Zeit Temperatur Niederschläge Wind Luftdruck Luftfeuchtigkeit
    00:00 +4°C° 0 mm 4 m/S 737 mmHg 78%
    01:00 +4°C° 0 mm 4 m/S 737 mmHg 79%
    02:00 +3°C° 0 mm 4 m/S 738 mmHg 81%
    03:00 +3°C° 0 mm 4 m/S 737 mmHg 82%
    04:00 +3°C° 0 mm 4 m/S 737 mmHg 82%
    05:00 +3°C° 0 mm 3 m/S 737 mmHg 83%
    06:00 +3°C° 1.1 mm 3 m/S 736 mmHg 86%
    07:00 +3°C° 1.1 mm 3 m/S 735 mmHg 89%
    08:00 +3°C° 1.1 mm 3 m/S 734 mmHg 92%
    09:00 +3°C° 2.4 mm 3 m/S 733 mmHg 92%
    10:00 +3°C° 2.4 mm 3 m/S 733 mmHg 92%
    11:00 +3°C° 2.4 mm 4 m/S 732 mmHg 91%
    12:00 +4°C° 0.4 mm 4 m/S 732 mmHg 90%
    13:00 +4°C° 0.4 mm 4 m/S 732 mmHg 89%
    14:00 +4°C° 0.4 mm 4 m/S 733 mmHg 88%
    15:00 +4°C° 0.1 mm 4 m/S 734 mmHg 86%
    16:00 +4°C° 0.1 mm 4 m/S 735 mmHg 85%
    17:00 +4°C° 0.1 mm 4 m/S 737 mmHg 83%
    18:00 +3°C° 0 mm 4 m/S 738 mmHg 84%
    19:00 +1°C° 0 mm 4 m/S 739 mmHg 85%
    20:00 +1°C° 0 mm 3 m/S 740 mmHg 85%
    21:00 +1°C° 0 mm 3 m/S 740 mmHg 87%
    22:00 +1°C° 0 mm 3 m/S 741 mmHg 88%
    23:00 +1°C° 0 mm 3 m/S 741 mmHg 89%

    29 September, Samstag

    Zeit Temperatur Niederschläge Wind Luftdruck Luftfeuchtigkeit
    00:00 0°C° 0 mm 3 m/S 742 mmHg 90%
    01:00 0°C° 0 mm 3 m/S 743 mmHg 91%
    02:00 0°C° 0 mm 3 m/S 743 mmHg 92%
    03:00 +1°C° 0 mm 2 m/S 743 mmHg 92%
    04:00 +1°C° 0 mm 2 m/S 743 mmHg 92%
    05:00 -1°C° 0 mm 2 m/S 744 mmHg 91%
    06:00 +1°C° 0.3 mm 2 m/S 744 mmHg 90%
    07:00 +2°C° 0.3 mm 2 m/S 744 mmHg 88%
    08:00 +3°C° 0.3 mm 2 m/S 745 mmHg 86%
    09:00 +4°C° 0.1 mm 2 m/S 745 mmHg 84%
    10:00 +4°C° 0.1 mm 2 m/S 746 mmHg 82%
    11:00 +5°C° 0.1 mm 2 m/S 746 mmHg 80%
    12:00 +6°C° 0.1 mm 2 m/S 746 mmHg 76%
    13:00 +6°C° 0.1 mm 2 m/S 746 mmHg 73%
    14:00 +7°C° 0.1 mm 2 m/S 747 mmHg 69%
    15:00 +6°C° 0 mm 2 m/S 747 mmHg 73%
    16:00 +5°C° 0 mm 2 m/S 747 mmHg 77%
    17:00 +4°C° 0 mm 2 m/S 748 mmHg 81%
    18:00 +3°C° 0 mm 2 m/S 748 mmHg 82%
    19:00 +2°C° 0 mm 2 m/S 748 mmHg 83%
    20:00 +2°C° 0 mm 1 m/S 749 mmHg 85%
    21:00 +2°C° 0 mm 1 m/S 749 mmHg 85%
    22:00 +1°C° 0 mm 1 m/S 750 mmHg 85%
    23:00 +1°C° 0 mm 1 m/S 750 mmHg 86%
    Mehr zeigen